NV6B Weather Reports


Display with metric or nautical units.
time (UTC)temp
F
wind
direction
speed
MPH
gust
MPH
rain 1hr
in
rain 24hr
in
rain mn
in
humidity
%
barometer
mb
20260901074458 63 120 1.0 7.0 0.00 0.00 0.00 29 1009.3
20260901045516 64 2 0.0 0.0 0.00 0.00 0.00 44 1010.1
20260901044456 65 2 0.0 0.0 0.00 0.00 0.00 43 1010.1
20260901043516 65 2 0.0 0.0 0.00 0.00 0.00 38 1009.9
20260901042456 65 2 0.0 0.0 0.00 0.00 0.00 38 1009.9
20260901041516 66 2 0.0 0.0 0.00 0.00 0.00 36 1009.7
20260901040456 67 2 0.0 0.0 0.00 0.00 0.00 35 1009.8
20260901014515 80 2 0.0 0.0 0.00 0.00 0.00 22 1010.1
20260901013455 81 2 0.0 0.0 0.00 0.00 0.00 19 1010.1
20260901012454 82 2 0.0 1.0 0.00 0.00 0.00 18 1010.2
20260901011454 82 2 0.0 4.0 0.00 0.00 0.00 18 1010.1
20260901010454 82 2 1.0 4.0 0.00 0.00 0.00 16 1010.3
20260831200511 83 73 3.0 5.0 0.00 0.00 0.00 15 1015.5
20260831195451 82 86 3.0 6.0 0.00 0.00 0.00 16 1015.7
20260831194451 79 123 3.0 4.0 0.00 0.00 0.00 16 1015.9
20260831193451 81 59 3.0 4.0 0.00 0.00 0.00 16 1016.1
20260831192451 80 115 1.0 7.0 0.00 0.00 0.00 15 1016.3
20260831191451 79 52 3.0 6.0 0.00 0.00 0.00 19 1016.5
20260831162449 65 95 2.0 4.0 0.00 0.00 0.00 27 1018.5
20260831161449 63 177 2.0 5.0 0.00 0.00 0.00 30 1018.6
20260831160449 62 144 4.0 4.0 0.00 0.00 0.00 33 1018.6
20260831155449 60 174 3.0 3.0 0.00 0.00 0.00 35 1018.8
20260831154449 60 174 3.0 5.0 0.00 0.00 0.00 36 1018.9
20260831153450 60 121 2.0 5.0 0.00 0.00 0.00 37 1018.9
20260831124447 44 127 2.0 3.0 0.00 0.00 0.00 49 1018.1
20260831123447 44 126 3.0 3.0 0.00 0.00 0.00 49 1018.0
20260831122447 44 126 2.0 2.0 0.00 0.00 0.00 49 1017.9
20260831121447 44 126 1.0 2.0 0.00 0.00 0.00 48 1017.8
20260831120447 44 126 0.0 2.0 0.00 0.00 0.00 48 1017.7
20260831115447 45 126 2.0 3.0 0.00 0.00 0.00 47 1017.7
20260831114447 45 126 1.0 3.0 0.00 0.00 0.00 47 1017.8
20260831113447 45 125 2.0 3.0 0.00 0.00 0.00 48 1017.8
20260831112447 45 125 0.0 3.0 0.00 0.00 0.00 48 1017.8
20260831111447 46 125 0.0 3.0 0.00 0.00 0.00 48 1017.8
20260831110446 46 125 2.0 3.0 0.00 0.00 0.00 47 1017.7
20260831105446 46 125 1.0 3.0 0.00 0.00 0.00 46 1017.8
20260831080445 52 156 0.0 0.0 0.00 0.00 0.00 47 1017.4
20260831075445 52 156 0.0 4.0 0.00 0.00 0.00 48 1017.3